Terminal Aerodrome Forecast
Issued by NWS

Home | Current Version | Previous Version | Text Only | Print | Product List | Glossary On
Versions: 1 2 3 4 5 6 7 8 9 10 11 12 13 14 15 16 17 18 19 20 21 22 23 24 25 26 27 28 29 30 31 32 33 34 35 36 37 38 39 40 41 42 43 44 45 46 47 48 49 50
000
FTUS45 KBOU 201724
TAFBJC
TAF
KBJC 201724Z 2018/2118 25022G30KT P6SM FEW130 BKN200
     FM202000 29015G23KT P6SM FEW130 BKN220
     FM210300 29020G30KT P6SM SCT120 BKN230
     FM211000 32011KT P6SM SCT070 BKN150
     FM211500 03010KT P6SM BKN060 BKN110=

USA.gov is the U.S. government's official web portal to all federal, state and local government web resources and services.